Time,TemperatureF,DewpointF,PressureIn,WindDirection,WindDirectionDegrees,WindSpeedMPH,WindSpeedGustMPH,Humidity,HourlyPrecipIn,Conditions,Clouds,dailyrainin,SoftwareType,DateUTC
2013-10-27 00:01:00,48.4,29.6,29.67,WSW,255,2.0,9.0,48,0.00,,,0.00,WeatherCatV1.11B39,2013-10-27 04:01:00,
2013-10-27 00:02:00,48.5,30.7,29.67,WSW,245,3.0,9.0,50,0.00,,,0.00,WeatherCatV1.11B39,2013-10-27 04:02:00,
2013-10-27 00:07:00,48.5,30.2,29.67,WSW,245,0.0,3.0,49,0.00,,,0.00,WeatherCatV1.11B39,2013-10-27 04:07:00,
2013-10-27 00:12:00,48.7,30.4,29.66,WSW,249,15.0,15.0,49,0.00,,,0.00,WeatherCatV1.11B39,2013-10-27 04:12:00,
2013-10-27 00:17:00,48.7,30.4,29.67,WSW,255,8.0,18.0,49,0.00,,,0.00,WeatherCatV1.11B39,2013-10-27 04:17:00,
2013-10-27 00:22:00,48.6,30.8,29.67,WSW,245,12.0,13.0,50,0.00,,,0.00,WeatherCatV1.11B39,2013-10-27 04:22:00,
2013-10-27 00:27:00,48.6,30.8,29.66,West,262,5.0,8.0,50,0.00,,,0.00,WeatherCatV1.11B39,2013-10-27 04:27:00,
2013-10-27 00:32:00,48.5,30.2,29.66,WSW,245,5.0,8.0,49,0.00,,,0.00,WeatherCatV1.11B39,2013-10-27 04:32:00,
2013-10-27 00:37:00,48.5,30.7,29.66,WSW,255,5.0,6.0,50,0.00,,,0.00,WeatherCatV1.11B39,2013-10-27 04:37:00,
2013-10-27 00:42:00,48.4,30.6,29.66,WSW,253,0.0,0.0,50,0.00,,,0.00,WeatherCatV1.11B39,2013-10-27 04:42:00,
2013-10-27 00:47:00,48.3,31.0,29.65,WSW,253,0.0,0.0,51,0.00,,,0.00,WeatherCatV1.11B39,2013-10-27 04:47:00,
2013-10-27 00:52:00,48.2,30.4,29.65,WSW,238,0.0,4.0,50,0.00,,,0.00,WeatherCatV1.11B39,2013-10-27 04:52:00,
2013-10-27 00:57:00,48.2,30.4,29.65,WSW,251,4.0,7.0,50,0.00,,,0.00,WeatherCatV1.11B39,2013-10-27 04:57:00,
2013-10-27 01:02:00,48.2,30.4,29.66,WSW,251,0.0,4.0,50,0.00,,,0.00,WeatherCatV1.11B39,2013-10-27 05:02:00,
2013-10-27 01:07:00,48.2,30.9,29.65,West,260,0.0,0.0,51,0.00,,,0.00,WeatherCatV1.11B39,2013-10-27 05:07:00,
2013-10-27 01:12:00,48.1,30.3,29.65,West,260,0.0,0.0,50,0.00,,,0.00,WeatherCatV1.11B39,2013-10-27 05:12:00,
2013-10-27 01:17:00,47.9,29.7,29.64,West,260,0.0,0.0,49,0.00,,,0.00,WeatherCatV1.11B39,2013-10-27 05:17:00,
2013-10-27 01:22:00,47.9,30.2,29.65,West,259,0.0,0.0,50,0.00,,,0.00,WeatherCatV1.11B39,2013-10-27 05:22:00,
2013-10-27 01:27:00,47.9,30.2,29.64,SW,227,0.0,0.0,50,0.00,,,0.00,WeatherCatV1.11B39,2013-10-27 05:27:00,
2013-10-27 01:32:00,47.9,30.7,29.65,South,189,0.0,0.0,51,0.00,,,0.00,WeatherCatV1.11B39,2013-10-27 05:32:00,
2013-10-27 01:37:00,47.9,30.7,29.66,WSW,254,0.0,4.0,51,0.00,,,0.00,WeatherCatV1.11B39,2013-10-27 05:37:00,
2013-10-27 01:42:00,47.8,32.4,29.66,WSW,253,6.0,19.0,55,0.00,,,0.00,WeatherCatV1.11B39,2013-10-27 05:42:00,
2013-10-27 01:47:00,47.6,31.8,29.66,WSW,253,11.0,15.0,54,0.00,,,0.00,WeatherCatV1.11B39,2013-10-27 05:47:00,
2013-10-27 01:52:00,47.4,32.5,29.65,WSW,253,8.0,12.0,56,0.00,,,0.00,WeatherCatV1.11B39,2013-10-27 05:52:00,
2013-10-27 01:57:00,47.1,32.7,29.66,WSW,251,6.0,15.0,57,0.00,,,0.00,WeatherCatV1.11B39,2013-10-27 05:57:00,
2013-10-27 02:02:00,46.9,32.9,29.66,SW,234,2.0,7.0,58,0.00,,,0.00,WeatherCatV1.11B39,2013-10-27 06:02:00,
2013-10-27 02:07:00,46.7,33.6,29.66,WSW,245,6.0,12.0,60,0.00,,,0.00,WeatherCatV1.11B39,2013-10-27 06:07:00,
2013-10-27 02:12:00,46.6,33.5,29.66,West,269,4.0,9.0,60,0.00,,,0.00,WeatherCatV1.11B39,2013-10-27 06:12:00,
2013-10-27 02:17:00,46.4,33.3,29.65,West,277,4.0,7.0,60,0.00,,,0.00,WeatherCatV1.11B39,2013-10-27 06:17:00,
2013-10-27 02:22:00,46.4,33.7,29.65,WSW,244,3.0,7.0,61,0.00,,,0.00,WeatherCatV1.11B39,2013-10-27 06:22:00,
2013-10-27 02:27:00,46.3,34.0,29.64,WSW,245,2.0,7.0,62,0.00,,,0.00,WeatherCatV1.11B39,2013-10-27 06:27:00,
2013-10-27 02:32:00,46.2,33.5,29.64,SW,223,2.0,2.0,61,0.00,,,0.00,WeatherCatV1.11B39,2013-10-27 06:32:00,
2013-10-27 02:37:00,46.0,33.7,29.64,WSW,239,0.0,4.0,62,0.00,,,0.00,WeatherCatV1.11B39,2013-10-27 06:37:00,
2013-10-27 02:42:00,45.8,33.1,29.64,WSW,256,0.0,5.0,61,0.00,,,0.00,WeatherCatV1.11B39,2013-10-27 06:42:00,
2013-10-27 02:47:00,45.7,33.4,29.64,WSW,240,3.0,7.0,62,0.00,,,0.00,WeatherCatV1.11B39,2013-10-27 06:47:00,
2013-10-27 02:52:00,45.6,33.3,29.64,SSW,213,0.0,7.0,62,0.00,,,0.00,WeatherCatV1.11B39,2013-10-27 06:52:00,
2013-10-27 02:57:00,45.6,33.7,29.64,WSW,244,0.0,8.0,63,0.00,,,0.00,WeatherCatV1.11B39,2013-10-27 06:57:00,
2013-10-27 03:02:00,45.4,33.6,29.63,SSW,207,0.0,0.0,63,0.00,,,0.00,WeatherCatV1.11B39,2013-10-27 07:02:00,
2013-10-27 03:07:00,45.3,33.5,29.63,SSW,213,0.0,0.0,63,0.00,,,0.00,WeatherCatV1.11B39,2013-10-27 07:07:00,
2013-10-27 03:12:00,45.1,33.3,29.62,SE,139,0.0,0.0,63,0.00,,,0.00,WeatherCatV1.11B39,2013-10-27 07:12:00,
2013-10-27 03:17:00,45.1,33.3,29.62,SSW,208,0.0,0.0,63,0.00,,,0.00,WeatherCatV1.11B39,2013-10-27 07:17:00,
2013-10-27 03:22:00,45.1,33.7,29.62,SW,214,0.0,0.0,64,0.00,,,0.00,WeatherCatV1.11B39,2013-10-27 07:22:00,
2013-10-27 03:27:00,45.1,33.3,29.62,SSW,202,0.0,0.0,63,0.00,,,0.00,WeatherCatV1.11B39,2013-10-27 07:27:00,
2013-10-27 03:32:00,45.1,33.3,29.61,SSW,211,0.0,0.0,63,0.00,,,0.00,WeatherCatV1.11B39,2013-10-27 07:32:00,
2013-10-27 03:37:00,45.1,33.7,29.62,SSE,166,0.0,4.0,64,0.00,,,0.00,WeatherCatV1.11B39,2013-10-27 07:37:00,
2013-10-27 03:42:00,45.0,33.6,29.61,SW,227,0.0,0.0,64,0.00,,,0.00,WeatherCatV1.11B39,2013-10-27 07:42:00,
2013-10-27 03:47:00,45.0,33.6,29.60,South,178,0.0,0.0,64,0.00,,,0.00,WeatherCatV1.11B39,2013-10-27 07:47:00,
2013-10-27 03:52:00,44.8,33.4,29.60,South,179,0.0,0.0,64,0.00,,,0.00,WeatherCatV1.11B39,2013-10-27 07:52:00,
2013-10-27 03:57:00,44.8,33.8,29.60,South,173,0.0,0.0,65,0.00,,,0.00,WeatherCatV1.11B39,2013-10-27 07:57:00,
2013-10-27 04:02:00,44.6,33.6,29.60,SSE,154,0.0,3.0,65,0.00,,,0.00,WeatherCatV1.11B39,2013-10-27 08:02:00,
2013-10-27 04:07:00,44.7,33.7,29.61,SSW,207,0.0,0.0,65,0.00,,,0.00,WeatherCatV1.11B39,2013-10-27 08:07:00,
2013-10-27 04:12:00,44.6,34.0,29.61,SW,215,0.0,0.0,66,0.00,,,0.00,WeatherCatV1.11B39,2013-10-27 08:12:00,
2013-10-27 04:17:00,44.7,33.7,29.60,SW,233,0.0,0.0,65,0.00,,,0.00,WeatherCatV1.11B39,2013-10-27 08:17:00,
2013-10-27 04:22:00,44.7,33.7,29.60,SW,225,0.0,0.0,65,0.00,,,0.00,WeatherCatV1.11B39,2013-10-27 08:22:00,
2013-10-27 04:27:00,44.7,33.7,29.59,SW,218,0.0,2.0,65,0.00,,,0.00,WeatherCatV1.11B39,2013-10-27 08:27:00,
2013-10-27 04:32:00,44.7,34.0,29.60,SW,223,0.0,0.0,66,0.00,,,0.00,WeatherCatV1.11B39,2013-10-27 08:32:00,
2013-10-27 04:37:00,44.8,33.8,29.60,SW,231,3.0,5.0,65,0.00,,,0.00,WeatherCatV1.11B39,2013-10-27 08:37:00,
2013-10-27 04:42:00,44.8,33.8,29.60,SW,229,0.0,3.0,65,0.00,,,0.00,WeatherCatV1.11B39,2013-10-27 08:42:00,
2013-10-27 04:47:00,45.0,34.7,29.60,WSW,245,4.0,5.0,67,0.00,,,0.00,WeatherCatV1.11B39,2013-10-27 08:47:00,
2013-10-27 04:52:00,45.2,34.1,29.60,WSW,256,6.0,8.0,65,0.00,,,0.00,WeatherCatV1.11B39,2013-10-27 08:52:00,
2013-10-27 04:57:00,45.3,34.2,29.59,SW,234,4.0,7.0,65,0.00,,,0.00,WeatherCatV1.11B39,2013-10-27 08:57:00,
2013-10-27 05:02:00,45.3,33.8,29.60,WSW,250,5.0,8.0,64,0.00,,,0.00,WeatherCatV1.11B39,2013-10-27 09:02:00,
2013-10-27 05:07:00,45.4,34.3,29.59,WSW,240,4.0,7.0,65,0.00,,,0.00,WeatherCatV1.11B39,2013-10-27 09:07:00,
2013-10-27 05:12:00,45.4,33.6,29.60,WSW,241,4.0,5.0,63,0.00,,,0.00,WeatherCatV1.11B39,2013-10-27 09:12:00,
2013-10-27 05:17:00,45.6,33.7,29.61,WSW,245,3.0,7.0,63,0.00,,,0.00,WeatherCatV1.11B39,2013-10-27 09:17:00,
2013-10-27 05:22:00,45.6,33.7,29.61,WSW,245,0.0,0.0,63,0.00,,,0.00,WeatherCatV1.11B39,2013-10-27 09:22:00,
2013-10-27 05:27:00,45.6,33.3,29.61,WSW,245,0.0,0.0,62,0.00,,,0.00,WeatherCatV1.11B39,2013-10-27 09:27:00,
2013-10-27 05:32:00,45.6,33.3,29.61,SW,236,0.0,0.0,62,0.00,,,0.00,WeatherCatV1.11B39,2013-10-27 09:32:00,
2013-10-27 05:37:00,45.4,33.2,29.61,SW,235,0.0,0.0,62,0.00,,,0.00,WeatherCatV1.11B39,2013-10-27 09:37:00,
2013-10-27 05:42:00,45.3,33.1,29.61,SW,234,0.0,0.0,62,0.00,,,0.00,WeatherCatV1.11B39,2013-10-27 09:42:00,
2013-10-27 05:47:00,45.3,32.7,29.62,SW,234,0.0,2.0,61,0.00,,,0.00,WeatherCatV1.11B39,2013-10-27 09:47:00,
2013-10-27 05:52:00,45.3,33.1,29.61,SW,234,0.0,0.0,62,0.00,,,0.00,WeatherCatV1.11B39,2013-10-27 09:52:00,
2013-10-27 05:57:00,45.1,32.9,29.62,SW,235,0.0,0.0,62,0.00,,,0.00,WeatherCatV1.11B39,2013-10-27 09:57:00,
2013-10-27 06:02:00,45.3,33.1,29.62,SW,227,0.0,0.0,62,0.00,,,0.00,WeatherCatV1.11B39,2013-10-27 10:02:00,
2013-10-27 06:07:00,45.1,32.9,29.61,SW,227,0.0,0.0,62,0.00,,,0.00,WeatherCatV1.11B39,2013-10-27 10:07:00,
2013-10-27 06:12:00,45.1,32.5,29.62,WSW,238,0.0,0.0,61,0.00,,,0.00,WeatherCatV1.11B39,2013-10-27 10:12:00,
2013-10-27 06:17:00,45.3,33.5,29.62,WSW,238,0.0,0.0,63,0.00,,,0.00,WeatherCatV1.11B39,2013-10-27 10:17:00,
2013-10-27 06:22:00,45.3,33.5,29.62,WSW,254,0.0,0.0,63,0.00,,,0.00,WeatherCatV1.11B39,2013-10-27 10:22:00,
2013-10-27 06:27:00,45.3,32.7,29.62,WSW,253,0.0,0.0,61,0.00,,,0.00,WeatherCatV1.11B39,2013-10-27 10:27:00,
2013-10-27 06:32:00,45.3,32.7,29.62,WSW,253,0.0,0.0,61,0.00,,,0.00,WeatherCatV1.11B39,2013-10-27 10:32:00,
2013-10-27 06:37:00,45.4,32.7,29.62,SW,234,0.0,0.0,61,0.00,,,0.00,WeatherCatV1.11B39,2013-10-27 10:37:00,
2013-10-27 06:42:00,45.4,32.7,29.63,SW,234,0.0,0.0,61,0.00,,,0.00,WeatherCatV1.11B39,2013-10-27 10:42:00,
2013-10-27 06:47:00,45.4,32.7,29.63,WSW,237,0.0,4.0,61,0.00,,,0.00,WeatherCatV1.11B39,2013-10-27 10:47:00,
2013-10-27 06:52:00,45.2,33.4,29.63,SW,236,0.0,0.0,63,0.00,,,0.00,WeatherCatV1.11B39,2013-10-27 10:52:00,
2013-10-27 06:57:00,44.8,34.5,29.63,SW,236,0.0,0.0,67,0.00,,,0.00,WeatherCatV1.11B39,2013-10-27 10:57:00,
2013-10-27 07:02:00,44.2,33.2,29.63,WSW,237,0.0,0.0,65,0.00,,,0.00,WeatherCatV1.11B39,2013-10-27 11:02:00,
2013-10-27 07:07:00,43.9,32.9,29.63,WSW,237,0.0,0.0,65,0.00,,,0.00,WeatherCatV1.11B39,2013-10-27 11:07:00,
2013-10-27 07:12:00,43.9,32.9,29.63,WSW,239,1.0,3.0,65,0.00,,,0.00,WeatherCatV1.11B39,2013-10-27 11:12:00,
2013-10-27 07:17:00,44.1,33.9,29.64,WSW,247,1.0,5.0,67,0.00,,,0.00,WeatherCatV1.11B39,2013-10-27 11:17:00,
2013-10-27 07:22:00,43.9,33.7,29.63,WSW,246,0.0,0.0,67,0.00,,,0.00,WeatherCatV1.11B39,2013-10-27 11:22:00,
2013-10-27 07:27:00,43.8,33.9,29.64,WSW,246,0.0,3.0,68,0.00,,,0.00,WeatherCatV1.11B39,2013-10-27 11:27:00,
2013-10-27 07:32:00,43.9,33.7,29.64,WSW,246,0.0,2.0,67,0.00,,,0.00,WeatherCatV1.11B39,2013-10-27 11:32:00,
2013-10-27 07:37:00,44.2,33.2,29.64,SW,234,0.0,0.0,65,0.00,,,0.00,WeatherCatV1.11B39,2013-10-27 11:37:00,
2013-10-27 07:42:00,44.2,32.4,29.64,SW,232,0.0,0.0,63,0.00,,,0.00,WeatherCatV1.11B39,2013-10-27 11:42:00,
2013-10-27 07:47:00,44.3,32.5,29.64,SW,230,0.0,0.0,63,0.00,,,0.00,WeatherCatV1.11B39,2013-10-27 11:47:00,
2013-10-27 07:52:00,44.2,32.4,29.65,SW,232,0.0,0.0,63,0.00,,,0.00,WeatherCatV1.11B39,2013-10-27 11:52:00,
2013-10-27 07:57:00,44.1,32.3,29.65,SW,232,0.0,0.0,63,0.00,,,0.00,WeatherCatV1.11B39,2013-10-27 11:57:00,
2013-10-27 08:02:00,43.7,31.9,29.66,SW,232,0.0,0.0,63,0.00,,,0.00,WeatherCatV1.11B39,2013-10-27 12:02:00,
2013-10-27 08:07:00,43.5,31.8,29.65,SW,231,0.0,0.0,63,0.00,,,0.00,WeatherCatV1.11B39,2013-10-27 12:07:00,
2013-10-27 08:12:00,43.2,31.9,29.65,SW,231,0.0,0.0,64,0.00,,,0.00,WeatherCatV1.11B39,2013-10-27 12:12:00,
2013-10-27 08:17:00,42.9,32.0,29.66,SW,231,0.0,0.0,65,0.00,,,0.00,WeatherCatV1.11B39,2013-10-27 12:17:00,
2013-10-27 08:22:00,42.8,32.6,29.66,SW,231,0.0,0.0,67,0.00,,,0.00,WeatherCatV1.11B39,2013-10-27 12:22:00,
2013-10-27 08:27:00,42.8,33.3,29.67,SW,231,0.0,0.0,69,0.00,,,0.00,WeatherCatV1.11B39,2013-10-27 12:27:00,
2013-10-27 08:31:00,42.7,33.6,29.66,SW,232,0.0,0.0,70,0.00,,,0.00,WeatherCatV1.11B39,2013-10-27 12:31:00,
2013-10-27 08:36:00,42.6,33.2,29.66,WSW,240,0.0,0.0,69,0.00,,,0.00,WeatherCatV1.11B39,2013-10-27 12:36:00,
2013-10-27 08:41:00,42.9,33.4,29.67,West,263,0.0,0.0,69,0.00,,,0.00,WeatherCatV1.11B39,2013-10-27 12:41:00,
2013-10-27 08:46:00,43.5,33.7,29.67,West,263,0.0,0.0,68,0.00,,,0.00,WeatherCatV1.11B39,2013-10-27 12:46:00,
2013-10-27 08:51:00,44.1,33.9,29.67,West,259,0.0,0.0,67,0.00,,,0.00,WeatherCatV1.11B39,2013-10-27 12:51:00,
2013-10-27 08:56:00,44.6,33.6,29.66,West,265,0.0,0.0,65,0.00,,,0.00,WeatherCatV1.11B39,2013-10-27 12:56:00,
2013-10-27 09:01:00,45.3,33.8,29.66,WSW,247,3.0,4.0,64,0.00,,,0.00,WeatherCatV1.11B39,2013-10-27 13:01:00,
2013-10-27 09:06:00,45.7,34.2,29.67,WSW,256,6.0,9.0,64,0.00,,,0.00,WeatherCatV1.11B39,2013-10-27 13:06:00,
2013-10-27 09:11:00,46.7,34.8,29.66,WNW,285,6.0,10.0,63,0.00,,,0.00,WeatherCatV1.11B39,2013-10-27 13:11:00,
2013-10-27 09:16:00,47.4,34.6,29.66,WSW,250,6.0,10.0,61,0.00,,,0.00,WeatherCatV1.11B39,2013-10-27 13:16:00,
2013-10-27 09:21:00,47.9,33.8,29.67,West,272,10.0,19.0,58,0.00,,,0.00,WeatherCatV1.11B39,2013-10-27 13:21:00,
2013-10-27 09:26:00,48.1,34.5,29.66,WSW,249,6.0,14.0,59,0.00,,,0.00,WeatherCatV1.11B39,2013-10-27 13:26:00,
2013-10-27 09:31:00,47.9,34.3,29.67,WNW,289,0.0,7.0,59,0.00,,,0.00,WeatherCatV1.11B39,2013-10-27 13:31:00,
2013-10-27 09:36:00,47.9,34.3,29.67,WSW,257,8.0,9.0,59,0.00,,,0.00,WeatherCatV1.11B39,2013-10-27 13:36:00,
2013-10-27 09:41:00,48.1,34.5,29.67,WSW,247,12.0,14.0,59,0.00,,,0.00,WeatherCatV1.11B39,2013-10-27 13:41:00,
2013-10-27 09:46:00,48.2,34.6,29.67,West,276,9.0,13.0,59,0.00,,,0.00,WeatherCatV1.11B39,2013-10-27 13:46:00,
2013-10-27 09:51:00,48.4,34.3,29.67,West,281,10.0,12.0,58,0.00,,,0.00,WeatherCatV1.11B39,2013-10-27 13:51:00,
2013-10-27 09:56:00,48.5,34.8,29.67,WNW,289,2.0,11.0,59,0.00,,,0.00,WeatherCatV1.11B39,2013-10-27 13:56:00,
2013-10-27 10:01:00,49.0,35.3,29.67,WNW,296,0.0,5.0,59,0.00,,,0.00,WeatherCatV1.11B39,2013-10-27 14:01:00,
2013-10-27 10:06:00,49.2,34.2,29.66,West,266,7.0,9.0,56,0.00,,,0.00,WeatherCatV1.11B39,2013-10-27 14:06:00,
2013-10-27 10:11:00,49.4,34.4,29.66,NW,305,0.0,15.0,56,0.00,,,0.00,WeatherCatV1.11B39,2013-10-27 14:11:00,
2013-10-27 10:16:00,49.5,34.0,29.67,West,278,7.0,8.0,55,0.00,,,0.00,WeatherCatV1.11B39,2013-10-27 14:16:00,
2013-10-27 10:21:00,49.7,34.2,29.67,WNW,283,0.0,13.0,55,0.00,,,0.00,WeatherCatV1.11B39,2013-10-27 14:21:00,
2013-10-27 10:26:00,49.9,33.5,29.67,WNW,287,7.0,7.0,53,0.00,,,0.00,WeatherCatV1.11B39,2013-10-27 14:26:00,
2013-10-27 10:31:00,50.1,33.2,29.67,West,279,9.0,14.0,52,0.00,,,0.00,WeatherCatV1.11B39,2013-10-27 14:31:00,
2013-10-27 10:36:00,50.1,33.6,29.67,West,277,12.0,14.0,53,0.00,,,0.00,WeatherCatV1.11B39,2013-10-27 14:36:00,
2013-10-27 10:41:00,50.3,34.3,29.67,WNW,288,3.0,18.0,54,0.00,,,0.00,WeatherCatV1.11B39,2013-10-27 14:41:00,
2013-10-27 10:46:00,50.5,34.0,29.67,West,276,4.0,9.0,53,0.00,,,0.00,WeatherCatV1.11B39,2013-10-27 14:46:00,
2013-10-27 10:51:00,51.0,34.0,29.67,NW,325,0.0,0.0,52,0.00,,,0.00,WeatherCatV1.11B39,2013-10-27 14:51:00,
2013-10-27 10:56:00,50.8,33.3,29.67,WNW,286,4.0,14.0,51,0.00,,,0.00,WeatherCatV1.11B39,2013-10-27 14:56:00,
2013-10-27 11:01:00,50.7,33.7,29.67,NNW,343,0.0,8.0,52,0.00,,,0.00,WeatherCatV1.11B39,2013-10-27 15:01:00,
2013-10-27 11:06:00,50.4,33.9,29.68,NNW,333,0.0,4.0,53,0.00,,,0.00,WeatherCatV1.11B39,2013-10-27 15:06:00,
2013-10-27 11:11:00,50.0,32.6,29.68,NW,306,0.0,0.0,51,0.00,,,0.00,WeatherCatV1.11B39,2013-10-27 15:11:00,
2013-10-27 11:16:00,50.1,33.2,29.68,NNE,31,0.0,2.0,52,0.00,,,0.00,WeatherCatV1.11B39,2013-10-27 15:16:00,
2013-10-27 11:21:00,50.5,32.6,29.68,WNW,297,0.0,11.0,50,0.00,,,0.00,WeatherCatV1.11B39,2013-10-27 15:21:00,
2013-10-27 11:26:00,50.4,32.0,29.68,WNW,290,3.0,9.0,49,0.00,,,0.00,WeatherCatV1.11B39,2013-10-27 15:26:00,
2013-10-27 11:31:00,50.3,32.4,29.68,WNW,291,5.0,14.0,50,0.00,,,0.00,WeatherCatV1.11B39,2013-10-27 15:31:00,
2013-10-27 11:36:00,50.1,33.2,29.68,WNW,296,0.0,14.0,52,0.00,,,0.00,WeatherCatV1.11B39,2013-10-27 15:36:00,
2013-10-27 11:41:00,50.1,32.2,29.67,WNW,286,8.0,17.0,50,0.00,,,0.00,WeatherCatV1.11B39,2013-10-27 15:41:00,
2013-10-27 11:46:00,50.0,33.1,29.67,WSW,250,6.0,9.0,52,0.00,,,0.00,WeatherCatV1.11B39,2013-10-27 15:46:00,
2013-10-27 11:51:00,50.3,33.8,29.68,West,276,4.0,16.0,53,0.00,,,0.00,WeatherCatV1.11B39,2013-10-27 15:51:00,
2013-10-27 11:56:00,50.1,32.7,29.68,West,275,13.0,16.0,51,0.00,,,0.00,WeatherCatV1.11B39,2013-10-27 15:56:00,
2013-10-27 12:01:00,49.7,32.8,29.68,West,278,5.0,14.0,52,0.00,,,0.00,WeatherCatV1.11B39,2013-10-27 16:01:00,
2013-10-27 12:06:00,49.5,33.1,29.68,West,268,15.0,15.0,53,0.00,,,0.00,WeatherCatV1.11B39,2013-10-27 16:06:00,
2013-10-27 12:11:00,49.6,33.2,29.68,WNW,286,3.0,10.0,53,0.00,,,0.00,WeatherCatV1.11B39,2013-10-27 16:11:00,
2013-10-27 12:16:00,50.3,33.8,29.68,WNW,282,5.0,9.0,53,0.00,,,0.00,WeatherCatV1.11B39,2013-10-27 16:16:00,
2013-10-27 12:21:00,50.1,33.2,29.68,WNW,287,4.0,17.0,52,0.00,,,0.00,WeatherCatV1.11B39,2013-10-27 16:21:00,
2013-10-27 12:26:00,50.1,33.2,29.68,WNW,300,0.0,9.0,52,0.00,,,0.00,WeatherCatV1.11B39,2013-10-27 16:26:00,
2013-10-27 12:31:00,50.0,33.1,29.67,NW,306,3.0,12.0,52,0.00,,,0.00,WeatherCatV1.11B39,2013-10-27 16:31:00,
2013-10-27 12:36:00,50.1,32.7,29.68,WNW,290,6.0,8.0,51,0.00,,,0.00,WeatherCatV1.11B39,2013-10-27 16:36:00,
2013-10-27 12:41:00,50.4,32.5,29.67,WNW,286,1.0,15.0,50,0.00,,,0.00,WeatherCatV1.11B39,2013-10-27 16:41:00,
2013-10-27 12:46:00,50.4,32.5,29.67,WNW,295,2.0,6.0,50,0.00,,,0.00,WeatherCatV1.11B39,2013-10-27 16:46:00,
2013-10-27 12:51:00,50.4,33.0,29.67,WNW,292,5.0,10.0,51,0.00,,,0.00,WeatherCatV1.11B39,2013-10-27 16:51:00,
2013-10-27 12:56:00,50.5,32.1,29.67,WNW,286,8.0,10.0,49,0.00,,,0.00,WeatherCatV1.11B39,2013-10-27 16:56:00,
2013-10-27 13:01:00,50.5,31.5,29.67,WNW,287,9.0,12.0,48,0.00,,,0.00,WeatherCatV1.11B39,2013-10-27 17:01:00,
2013-10-27 13:06:00,50.3,30.3,29.67,WNW,303,0.0,17.0,46,0.00,,,0.00,WeatherCatV1.11B39,2013-10-27 17:06:00,
2013-10-27 13:11:00,50.5,31.5,29.67,WNW,302,0.0,5.0,48,0.00,,,0.00,WeatherCatV1.11B39,2013-10-27 17:11:00,
2013-10-27 13:16:00,51.8,32.7,29.67,West,264,6.0,9.0,48,0.00,,,0.00,WeatherCatV1.11B39,2013-10-27 17:16:00,
2013-10-27 13:21:00,52.2,32.0,29.67,West,280,12.0,14.0,46,0.00,,,0.00,WeatherCatV1.11B39,2013-10-27 17:21:00,
2013-10-27 13:26:00,52.5,31.2,29.67,WNW,296,1.0,14.0,44,0.00,,,0.00,WeatherCatV1.11B39,2013-10-27 17:26:00,
2013-10-27 13:31:00,53.1,31.8,29.66,West,270,11.0,16.0,44,0.00,,,0.00,WeatherCatV1.11B39,2013-10-27 17:31:00,
2013-10-27 13:36:00,52.8,31.5,29.67,WNW,289,7.0,17.0,44,0.00,,,0.00,WeatherCatV1.11B39,2013-10-27 17:36:00,
2013-10-27 13:41:00,51.9,30.7,29.67,WNW,290,6.0,15.0,44,0.00,,,0.00,WeatherCatV1.11B39,2013-10-27 17:41:00,
2013-10-27 13:46:00,51.9,30.7,29.67,WNW,282,12.0,16.0,44,0.00,,,0.00,WeatherCatV1.11B39,2013-10-27 17:46:00,
2013-10-27 13:51:00,52.2,31.5,29.66,West,280,13.0,15.0,45,0.00,,,0.00,WeatherCatV1.11B39,2013-10-27 17:51:00,
2013-10-27 13:56:00,51.8,30.6,29.67,West,279,12.0,16.0,44,0.00,,,0.00,WeatherCatV1.11B39,2013-10-27 17:56:00,
2013-10-27 14:01:00,51.1,30.0,29.67,West,279,3.0,14.0,44,0.00,,,0.00,WeatherCatV1.11B39,2013-10-27 18:01:00,
2013-10-27 14:06:00,51.2,30.0,29.67,West,281,5.0,13.0,44,0.00,,,0.00,WeatherCatV1.11B39,2013-10-27 18:06:00,
2013-10-27 14:11:00,51.9,30.7,29.67,West,276,4.0,12.0,44,0.00,,,0.00,WeatherCatV1.11B39,2013-10-27 18:11:00,
2013-10-27 14:16:00,52.2,30.4,29.67,WNW,284,13.0,20.0,43,0.00,,,0.00,WeatherCatV1.11B39,2013-10-27 18:16:00,
2013-10-27 14:21:00,51.9,28.9,29.66,WNW,282,11.0,22.0,41,0.00,,,0.00,WeatherCatV1.11B39,2013-10-27 18:21:00,
2013-10-27 14:26:00,51.9,29.5,29.67,WSW,253,8.0,12.0,42,0.00,,,0.00,WeatherCatV1.11B39,2013-10-27 18:26:00,
2013-10-27 14:31:00,51.4,28.5,29.67,West,275,4.0,17.0,41,0.00,,,0.00,WeatherCatV1.11B39,2013-10-27 18:31:00,
2013-10-27 14:36:00,51.5,29.2,29.68,West,281,4.0,14.0,42,0.00,,,0.00,WeatherCatV1.11B39,2013-10-27 18:36:00,
2013-10-27 14:41:00,51.5,30.9,29.68,WSW,246,7.0,9.0,45,0.00,,,0.00,WeatherCatV1.11B39,2013-10-27 18:41:00,
2013-10-27 14:46:00,51.9,31.8,29.67,WNW,303,0.0,14.0,46,0.00,,,0.00,WeatherCatV1.11B39,2013-10-27 18:46:00,
2013-10-27 14:51:00,51.9,30.7,29.67,WNW,294,0.0,6.0,44,0.00,,,0.00,WeatherCatV1.11B39,2013-10-27 18:51:00,
2013-10-27 14:56:00,51.7,30.5,29.68,WNW,298,0.0,7.0,44,0.00,,,0.00,WeatherCatV1.11B39,2013-10-27 18:56:00,
2013-10-27 15:01:00,51.5,29.2,29.68,WNW,283,3.0,11.0,42,0.00,,,0.00,WeatherCatV1.11B39,2013-10-27 19:01:00,
2013-10-27 15:06:00,51.1,28.2,29.68,WNW,293,6.0,14.0,41,0.00,,,0.00,WeatherCatV1.11B39,2013-10-27 19:06:00,
2013-10-27 15:11:00,51.5,28.6,29.69,WNW,288,4.0,12.0,41,0.00,,,0.00,WeatherCatV1.11B39,2013-10-27 19:11:00,
2013-10-27 15:16:00,51.6,28.7,29.69,West,281,7.0,11.0,41,0.00,,,0.00,WeatherCatV1.11B39,2013-10-27 19:16:00,
2013-10-27 15:21:00,52.2,29.8,29.69,WNW,284,3.0,6.0,42,0.00,,,0.00,WeatherCatV1.11B39,2013-10-27 19:21:00,
2013-10-27 15:26:00,52.5,28.3,29.68,WNW,289,4.0,9.0,39,0.00,,,0.00,WeatherCatV1.11B39,2013-10-27 19:26:00,
2013-10-27 15:31:00,52.3,29.3,29.68,WSW,253,10.0,13.0,41,0.00,,,0.00,WeatherCatV1.11B39,2013-10-27 19:31:00,
2013-10-27 15:36:00,51.9,27.7,29.69,WNW,290,6.0,15.0,39,0.00,,,0.00,WeatherCatV1.11B39,2013-10-27 19:36:00,
2013-10-27 15:41:00,52.3,28.7,29.69,WNW,293,5.0,18.0,40,0.00,,,0.00,WeatherCatV1.11B39,2013-10-27 19:41:00,
2013-10-27 15:46:00,52.5,28.3,29.69,NW,320,0.0,8.0,39,0.00,,,0.00,WeatherCatV1.11B39,2013-10-27 19:46:00,
2013-10-27 15:51:00,52.0,27.8,29.69,West,271,9.0,15.0,39,0.00,,,0.00,WeatherCatV1.11B39,2013-10-27 19:51:00,
2013-10-27 15:56:00,51.6,27.5,29.69,WNW,293,3.0,11.0,39,0.00,,,0.00,WeatherCatV1.11B39,2013-10-27 19:56:00,
2013-10-27 16:01:00,51.3,26.6,29.69,WNW,293,5.0,12.0,38,0.00,,,0.00,WeatherCatV1.11B39,2013-10-27 20:01:00,
2013-10-27 16:06:00,51.6,26.8,29.69,West,264,7.0,11.0,38,0.00,,,0.00,WeatherCatV1.11B39,2013-10-27 20:06:00,
2013-10-27 16:11:00,51.7,26.9,29.69,WNW,290,5.0,8.0,38,0.00,,,0.00,WeatherCatV1.11B39,2013-10-27 20:11:00,
2013-10-27 16:16:00,51.7,28.8,29.69,West,273,3.0,9.0,41,0.00,,,0.00,WeatherCatV1.11B39,2013-10-27 20:16:00,
2013-10-27 16:21:00,52.2,28.6,29.69,WNW,302,0.0,9.0,40,0.00,,,0.00,WeatherCatV1.11B39,2013-10-27 20:21:00,
2013-10-27 16:26:00,52.6,29.0,29.70,WNW,282,2.0,7.0,40,0.00,,,0.00,WeatherCatV1.11B39,2013-10-27 20:26:00,
2013-10-27 16:31:00,52.5,27.6,29.70,West,280,7.0,14.0,38,0.00,,,0.00,WeatherCatV1.11B39,2013-10-27 20:31:00,
2013-10-27 16:36:00,51.9,28.3,29.70,WNW,291,3.0,9.0,40,0.00,,,0.00,WeatherCatV1.11B39,2013-10-27 20:36:00,
2013-10-27 16:41:00,51.3,27.2,29.71,WSW,258,8.0,13.0,39,0.00,,,0.00,WeatherCatV1.11B39,2013-10-27 20:41:00,
2013-10-27 16:46:00,51.3,27.8,29.71,West,278,6.0,13.0,40,0.00,,,0.00,WeatherCatV1.11B39,2013-10-27 20:46:00,
2013-10-27 16:51:00,51.6,27.5,29.71,West,269,8.0,10.0,39,0.00,,,0.00,WeatherCatV1.11B39,2013-10-27 20:51:00,
2013-10-27 16:56:00,51.7,27.6,29.70,West,280,0.0,18.0,39,0.00,,,0.00,WeatherCatV1.11B39,2013-10-27 20:56:00,
2013-10-27 17:01:00,51.7,28.2,29.71,WNW,285,6.0,12.0,40,0.00,,,0.00,WeatherCatV1.11B39,2013-10-27 21:01:00,
2013-10-27 17:06:00,51.4,27.3,29.72,WNW,286,5.0,11.0,39,0.00,,,0.00,WeatherCatV1.11B39,2013-10-27 21:06:00,
2013-10-27 17:11:00,50.9,27.4,29.72,WSW,248,9.0,12.0,40,0.00,,,0.00,WeatherCatV1.11B39,2013-10-27 21:11:00,
2013-10-27 17:16:00,50.4,26.4,29.72,WSW,248,6.0,15.0,39,0.00,,,0.00,WeatherCatV1.11B39,2013-10-27 21:16:00,
2013-10-27 17:21:00,50.1,27.9,29.72,West,264,4.0,15.0,42,0.00,,,0.00,WeatherCatV1.11B39,2013-10-27 21:21:00,
2013-10-27 17:26:00,49.8,26.5,29.73,West,277,9.0,9.0,40,0.00,,,0.00,WeatherCatV1.11B39,2013-10-27 21:26:00,
2013-10-27 17:31:00,49.7,27.6,29.73,WNW,300,6.0,9.0,42,0.00,,,0.00,WeatherCatV1.11B39,2013-10-27 21:31:00,
2013-10-27 17:36:00,49.5,27.4,29.73,WSW,254,18.0,18.0,42,0.00,,,0.00,WeatherCatV1.11B39,2013-10-27 21:36:00,
2013-10-27 17:41:00,49.5,28.5,29.73,WSW,249,4.0,9.0,44,0.00,,,0.00,WeatherCatV1.11B39,2013-10-27 21:41:00,
2013-10-27 17:46:00,49.4,28.4,29.74,WNW,284,9.0,10.0,44,0.00,,,0.00,WeatherCatV1.11B39,2013-10-27 21:46:00,
2013-10-27 17:51:00,49.2,27.1,29.74,WNW,285,2.0,7.0,42,0.00,,,0.00,WeatherCatV1.11B39,2013-10-27 21:51:00,
2013-10-27 17:56:00,49.1,28.1,29.75,West,276,4.0,9.0,44,0.00,,,0.00,WeatherCatV1.11B39,2013-10-27 21:56:00,
2013-10-27 18:01:00,48.9,29.0,29.75,West,271,8.0,11.0,46,0.00,,,0.00,WeatherCatV1.11B39,2013-10-27 22:01:00,
2013-10-27 18:06:00,48.8,28.9,29.75,WSW,256,5.0,7.0,46,0.00,,,0.00,WeatherCatV1.11B39,2013-10-27 22:06:00,
2013-10-27 18:11:00,48.6,28.8,29.76,WSW,252,3.0,4.0,46,0.00,,,0.00,WeatherCatV1.11B39,2013-10-27 22:11:00,
2013-10-27 18:16:00,48.5,28.1,29.76,West,268,5.0,7.0,45,0.00,,,0.00,WeatherCatV1.11B39,2013-10-27 22:16:00,
2013-10-27 18:21:00,48.5,28.7,29.77,WNW,285,7.0,9.0,46,0.00,,,0.00,WeatherCatV1.11B39,2013-10-27 22:21:00,
2013-10-27 18:26:00,48.5,28.7,29.77,WNW,287,2.0,5.0,46,0.00,,,0.00,WeatherCatV1.11B39,2013-10-27 22:26:00,
2013-10-27 18:31:00,48.3,29.0,29.77,WSW,247,4.0,7.0,47,0.00,,,0.00,WeatherCatV1.11B39,2013-10-27 22:31:00,
2013-10-27 18:36:00,48.3,29.0,29.77,West,281,4.0,6.0,47,0.00,,,0.00,WeatherCatV1.11B39,2013-10-27 22:36:00,
2013-10-27 18:41:00,48.3,29.0,29.77,WNW,282,0.0,3.0,47,0.00,,,0.00,WeatherCatV1.11B39,2013-10-27 22:41:00,
2013-10-27 18:46:00,48.2,29.4,29.77,West,273,0.0,2.0,48,0.00,,,0.00,WeatherCatV1.11B39,2013-10-27 22:46:00,
2013-10-27 18:51:00,48.2,29.4,29.78,WNW,292,4.0,4.0,48,0.00,,,0.00,WeatherCatV1.11B39,2013-10-27 22:51:00,
2013-10-27 18:56:00,48.1,29.9,29.78,WNW,283,0.0,0.0,49,0.00,,,0.00,WeatherCatV1.11B39,2013-10-27 22:56:00,
2013-10-27 19:01:00,47.9,29.2,29.78,West,278,0.0,2.0,48,0.00,,,0.00,WeatherCatV1.11B39,2013-10-27 23:01:00,
2013-10-27 19:06:00,47.8,29.6,29.78,West,280,0.0,0.0,49,0.00,,,0.00,WeatherCatV1.11B39,2013-10-27 23:06:00,
2013-10-27 19:11:00,47.6,29.9,29.79,West,259,0.0,5.0,50,0.00,,,0.00,WeatherCatV1.11B39,2013-10-27 23:11:00,
2013-10-27 19:16:00,47.5,29.8,29.79,West,272,5.0,5.0,50,0.00,,,0.00,WeatherCatV1.11B39,2013-10-27 23:16:00,
2013-10-27 19:21:00,47.2,29.5,29.79,WNW,283,2.0,7.0,50,0.00,,,0.00,WeatherCatV1.11B39,2013-10-27 23:21:00,
2013-10-27 19:26:00,47.0,29.3,29.80,WNW,285,1.0,5.0,50,0.00,,,0.00,WeatherCatV1.11B39,2013-10-27 23:26:00,
2013-10-27 19:31:00,46.9,29.2,29.79,WNW,290,0.0,5.0,50,0.00,,,0.00,WeatherCatV1.11B39,2013-10-27 23:31:00,
2013-10-27 19:36:00,46.7,30.0,29.80,WNW,290,0.0,3.0,52,0.00,,,0.00,WeatherCatV1.11B39,2013-10-27 23:36:00,
2013-10-27 19:41:00,46.6,29.9,29.80,WNW,288,3.0,5.0,52,0.00,,,0.00,WeatherCatV1.11B39,2013-10-27 23:41:00,
2013-10-27 19:46:00,46.4,30.2,29.80,WNW,290,0.0,0.0,53,0.00,,,0.00,WeatherCatV1.11B39,2013-10-27 23:46:00,
2013-10-27 19:51:00,46.3,30.1,29.80,WNW,287,0.0,0.0,53,0.00,,,0.00,WeatherCatV1.11B39,2013-10-27 23:51:00,
2013-10-27 19:56:00,46.1,29.9,29.80,WNW,288,0.0,0.0,53,0.00,,,0.00,WeatherCatV1.11B39,2013-10-27 23:56:00,
2013-10-27 20:01:00,46.0,29.8,29.80,West,281,0.0,0.0,53,0.00,,,0.00,WeatherCatV1.11B39,2013-10-28 00:01:00,
2013-10-27 20:06:00,45.7,30.0,29.80,WSW,251,1.0,5.0,54,0.00,,,0.00,WeatherCatV1.11B39,2013-10-28 00:06:00,
2013-10-27 20:11:00,45.7,30.0,29.80,WSW,249,3.0,3.0,54,0.00,,,0.00,WeatherCatV1.11B39,2013-10-28 00:11:00,
2013-10-27 20:16:00,45.7,30.0,29.80,WSW,248,4.0,5.0,54,0.00,,,0.00,WeatherCatV1.11B39,2013-10-28 00:16:00,
2013-10-27 20:21:00,45.6,30.8,29.80,WSW,247,3.0,5.0,56,0.00,,,0.00,WeatherCatV1.11B39,2013-10-28 00:21:00,
2013-10-27 20:26:00,45.3,30.1,29.81,West,276,0.0,0.0,55,0.00,,,0.00,WeatherCatV1.11B39,2013-10-28 00:26:00,
2013-10-27 20:31:00,45.1,30.4,29.81,WNW,286,0.0,3.0,56,0.00,,,0.00,WeatherCatV1.11B39,2013-10-28 00:31:00,
2013-10-27 20:36:00,45.0,29.8,29.81,WNW,286,0.0,2.0,55,0.00,,,0.00,WeatherCatV1.11B39,2013-10-28 00:36:00,
2013-10-27 20:41:00,44.7,30.0,29.81,WNW,287,0.0,2.0,56,0.00,,,0.00,WeatherCatV1.11B39,2013-10-28 00:41:00,
2013-10-27 20:46:00,44.5,30.2,29.81,WNW,287,0.0,5.0,57,0.00,,,0.00,WeatherCatV1.11B39,2013-10-28 00:46:00,
2013-10-27 20:51:00,44.4,30.1,29.82,WNW,289,0.0,4.0,57,0.00,,,0.00,WeatherCatV1.11B39,2013-10-28 00:51:00,
2013-10-27 20:56:00,44.3,30.0,29.82,WNW,288,0.0,4.0,57,0.00,,,0.00,WeatherCatV1.11B39,2013-10-28 00:56:00,
2013-10-27 21:01:00,44.2,29.9,29.82,WNW,286,0.0,0.0,57,0.00,,,0.00,WeatherCatV1.11B39,2013-10-28 01:01:00,
2013-10-27 21:06:00,44.1,29.9,29.82,WNW,287,0.0,0.0,57,0.00,,,0.00,WeatherCatV1.11B39,2013-10-28 01:06:00,
2013-10-27 21:11:00,43.9,29.7,29.83,WNW,287,0.0,0.0,57,0.00,,,0.00,WeatherCatV1.11B39,2013-10-28 01:11:00,
2013-10-27 21:16:00,43.6,29.4,29.82,WNW,287,0.0,0.0,57,0.00,,,0.00,WeatherCatV1.11B39,2013-10-28 01:16:00,
2013-10-27 21:21:00,43.5,29.3,29.82,WNW,287,0.0,0.0,57,0.00,,,0.00,WeatherCatV1.11B39,2013-10-28 01:21:00,
2013-10-27 21:26:00,43.2,29.9,29.82,WNW,287,0.0,0.0,59,0.00,,,0.00,WeatherCatV1.11B39,2013-10-28 01:26:00,
2013-10-27 21:31:00,42.9,30.0,29.82,WNW,286,0.0,0.0,60,0.00,,,0.00,WeatherCatV1.11B39,2013-10-28 01:31:00,
2013-10-27 21:36:00,42.8,30.3,29.83,WNW,286,0.0,0.0,61,0.00,,,0.00,WeatherCatV1.11B39,2013-10-28 01:36:00,
2013-10-27 21:41:00,42.5,30.0,29.83,WNW,287,0.0,0.0,61,0.00,,,0.00,WeatherCatV1.11B39,2013-10-28 01:41:00,
2013-10-27 21:46:00,42.4,29.1,29.83,WNW,287,0.0,0.0,59,0.00,,,0.00,WeatherCatV1.11B39,2013-10-28 01:46:00,
2013-10-27 21:51:00,42.2,28.9,29.84,WNW,287,0.0,0.0,59,0.00,,,0.00,WeatherCatV1.11B39,2013-10-28 01:51:00,
2013-10-27 21:56:00,42.1,29.6,29.84,WNW,287,0.0,0.0,61,0.00,,,0.00,WeatherCatV1.11B39,2013-10-28 01:56:00,
2013-10-27 22:01:00,41.7,30.4,29.85,WNW,287,0.0,0.0,64,0.00,,,0.00,WeatherCatV1.11B39,2013-10-28 02:01:00,
2013-10-27 22:06:00,40.9,30.4,29.85,WNW,288,0.0,0.0,66,0.00,,,0.00,WeatherCatV1.11B39,2013-10-28 02:06:00,
2013-10-27 22:11:00,40.3,30.2,29.85,WNW,290,0.0,0.0,67,0.00,,,0.00,WeatherCatV1.11B39,2013-10-28 02:11:00,
2013-10-27 22:16:00,39.6,30.3,29.85,WNW,288,0.0,0.0,69,0.00,,,0.00,WeatherCatV1.11B39,2013-10-28 02:16:00,
2013-10-27 22:21:00,39.2,30.3,29.85,WNW,287,0.0,0.0,70,0.00,,,0.00,WeatherCatV1.11B39,2013-10-28 02:21:00,
2013-10-27 22:26:00,38.8,29.9,29.85,WNW,288,0.0,0.0,70,0.00,,,0.00,WeatherCatV1.11B39,2013-10-28 02:26:00,
2013-10-27 22:31:00,38.7,30.8,29.86,WNW,289,0.0,1.0,73,0.00,,,0.00,WeatherCatV1.11B39,2013-10-28 02:31:00,
2013-10-27 22:36:00,39.1,31.2,29.86,WNW,289,0.0,1.0,73,0.00,,,0.00,WeatherCatV1.11B39,2013-10-28 02:36:00,
2013-10-27 22:41:00,39.7,31.4,29.85,WNW,288,0.0,1.0,72,0.00,,,0.00,WeatherCatV1.11B39,2013-10-28 02:41:00,
2013-10-27 22:46:00,40.0,31.0,29.85,WNW,288,0.0,0.0,70,0.00,,,0.00,WeatherCatV1.11B39,2013-10-28 02:46:00,
2013-10-27 22:51:00,40.1,30.8,29.85,WNW,288,0.0,0.0,69,0.00,,,0.00,WeatherCatV1.11B39,2013-10-28 02:51:00,
2013-10-27 22:56:00,40.2,30.1,29.85,WNW,288,0.0,0.0,67,0.00,,,0.00,WeatherCatV1.11B39,2013-10-28 02:56:00,
2013-10-27 23:01:00,40.1,29.7,29.86,WNW,288,0.0,0.0,66,0.00,,,0.00,WeatherCatV1.11B39,2013-10-28 03:01:00,
2013-10-27 23:06:00,39.9,29.5,29.85,WNW,288,0.0,0.0,66,0.00,,,0.00,WeatherCatV1.11B39,2013-10-28 03:06:00,
2013-10-27 23:11:00,39.9,30.2,29.86,WNW,288,0.0,0.0,68,0.00,,,0.00,WeatherCatV1.11B39,2013-10-28 03:11:00,
2013-10-27 23:16:00,39.8,31.2,29.85,WNW,288,0.0,0.0,71,0.00,,,0.00,WeatherCatV1.11B39,2013-10-28 03:16:00,
2013-10-27 23:21:00,39.6,31.0,29.86,WNW,288,0.0,0.0,71,0.00,,,0.00,WeatherCatV1.11B39,2013-10-28 03:21:00,
2013-10-27 23:26:00,39.5,30.5,29.86,WNW,288,0.0,0.0,70,0.00,,,0.00,WeatherCatV1.11B39,2013-10-28 03:26:00,
2013-10-27 23:31:00,39.6,30.3,29.86,WNW,287,0.0,0.0,69,0.00,,,0.00,WeatherCatV1.11B39,2013-10-28 03:31:00,
2013-10-27 23:36:00,39.6,30.3,29.86,WSW,253,0.0,0.0,69,0.00,,,0.00,WeatherCatV1.11B39,2013-10-28 03:36:00,
2013-10-27 23:41:00,39.3,29.6,29.86,WSW,252,0.0,0.0,68,0.00,,,0.00,WeatherCatV1.11B39,2013-10-28 03:41:00,
2013-10-27 23:46:00,39.4,30.1,29.86,WSW,252,0.0,0.0,69,0.00,,,0.00,WeatherCatV1.11B39,2013-10-28 03:46:00,
2013-10-27 23:51:00,38.9,30.3,29.86,WSW,252,0.0,0.0,71,0.00,,,0.00,WeatherCatV1.11B39,2013-10-28 03:51:00,
2013-10-27 23:56:00,38.5,30.3,29.86,WSW,252,0.0,0.0,72,0.00,,,0.00,WeatherCatV1.11B39,2013-10-28 03:56:00,